User: anonymous   Login
Location: Pitton
(51.0667°N, 1.7000°W)
Time: 01:32:28
(UTC+00:00)
Language:

USA 234 - Orbit

View from above orbital plane
View from above orbital plane
View from above satellite
View from above satellite

Ground track
Ground track

The orbit data is extracted from the following two-line orbital elements,

1 38109U 12014A   19305.12750016 0.00000000  00000-0  00000-0 0    02
2 38109 122.9994 165.6141 0002708 102.4291 257.5709 13.41420435    01
Epoch (UTC): 01 November 2019 03:03:36
Eccentricity: 0.0002708
inclination: 122.9994°
perigee height: 1102 km
apogee height: 1106 km
right ascension of ascending node: 165.6141°
argument of perigee: 102.4291°
revolutions per day: 13.41420435
mean anomaly at epoch: 257.5709°
orbit number at epoch: 0

The dashed part of the orbit path shows where the satellite is in the earth's shadow,  

DLR